Regional Weather Roundup
Issued by NWS Sioux Falls, SD

Home | Current Version | Previous Version | Graphics & Text | Print | Product List | Glossary Off
Versions: 1 2 3 4 5 6 7 8 9 10 11 12 13 14 15 16 17 18 19 20 21 22 23 24 25 26 27 28 29 30 31 32 33 34 35 36 37 38 39 40 41 42 43 44 45 46 47 48 49 50

672
ASUS43 KFSD 261202
RWRFSD

WEATHER ROUNDUP FOR SE SOUTH DAKOTA/SW MINNESOTA/NW IOWA
NATIONAL WEATHER SERVICE SIOUX FALLS SD
700 AM CDT MON SEP 26 2016

NOTE: "FAIR" INDICATES FEW OR NO CLOUDS BELOW 12,000 FEET WITH NO
SIGNIFICANT WEATHER AND OR OBSTRUCTIONS TO VISIBILITY.


SDZ038>040-050-052>070-261300-
SOUTHEAST SOUTH DAKOTA

CITY           SKY/WX    TMP DP  RH WIND       PRES   REMARKS
CHAMBERLAIN    CLEAR     47  38  68 W12       30.22S
6HR MIN TEMP:  45; 6HR MAX TEMP:  49;

HURON          CLEAR     40  35  83 W7        30.16S
6HR MIN TEMP:  40; 6HR MAX TEMP:  47;

MADISON        FAIR      41  36  81 W10       30.15S
MITCHELL       CLEAR     44  37  76 W9        30.19R
6HR MIN TEMP:  44; 6HR MAX TEMP:  49;

SIOUX FALLS    PTCLDY    43  36  76 W6        30.15S
6HR MIN TEMP:  43; 6HR MAX TEMP:  48;

WINNER         FAIR      48  35  60 W3        30.24S
YANKTON        CLEAR     46  36  66 W12       30.19S
$$

MNZ071-072-080-081-089-090-097-098-261300-
SOUTHWEST MINNESOTA

CITY           SKY/WX    TMP DP  RH WIND       PRES   REMARKS
FAIRMONT       CLEAR     49  38  65 W15       30.08R
JACKSON        CLEAR     46  34  61 W12       30.10S
LUVERNE        CLEAR     41  34  75 W10       30.15S
MARSHALL       CLEAR     48  36  63 W17       30.07F
6HR MIN TEMP:  47; 6HR MAX TEMP:  54;

MONTEVIDEO     CLEAR     46  37  71 NW12      30.06R
PIPESTONE      CLEAR     43  36  75 W6        30.12F
REDWOOD FALLS  CLEAR     48  37  65 W13       30.04S
TRACY          CLEAR     49  38  67 W7        30.08F
WINDOM         CLEAR     46  37  71 W9        30.09S
WORTHINGTON    CLEAR     45  36  70 W13       30.12S
$$

IAZ001>003-012>014-020>022-031-032-NEZ013-014-SDZ071-261300-
NORTHWEST IOWA

CITY           SKY/WX    TMP DP  RH WIND       PRES   REMARKS
CHEROKEE       CLEAR     44  38  82 W6        30.17R
DENISON        CLEAR     45  39  81 CALM      30.18S
ESTHERVILLE    CLEAR     46  38  73 W9        30.10R
LE MARS        CLEAR     45  37  76 CALM      30.19S
ORANGE CITY    CLEAR     43  37  81 W6        30.17S
SHELDON        CLEAR     43  37  81 W9        30.14S
SIOUX CITY     CLEAR     45  37  73 W5        30.20S
6HR MIN TEMP:  45; 6HR MAX TEMP:  50;

SPENCER        CLEAR     44  38  79 W10       30.13S
6HR MIN TEMP:  44; 6HR MAX TEMP:  49;

STORM LAKE     CLEAR     41  37  87 W12       30.16S
$$

ABBREVIATIONS USED IN REMARKS
   TC - TEMPERATURE IN CELSIUS
  WCI - WIND CHILL INDEX
   HX - HEAT INDEX
  VSB - VISIBILITY





USA.gov is the U.S. government's official web portal to all federal, state and local government web resources and services.